Location: Laterina
(43.5167°N, 11.7167°E)
Time: 05:24:15
(UTC+00:00)

Envisat - Visible Passes

Search period start: 25 November 2020 00:00
Search period end: 05 December 2020 00:00
Orbit: 764 x 766 km, 98.1° (Epoch: 24 November)

Date Brightness Start Highest point End Pass type
(mag) Time Alt. Az. Time Alt. Az. Time Alt. Az.
25 Nov 5.7 04:05:17 10° NE 04:08:59 20° E 04:12:40 10° SE visible
25 Nov 3.2 05:43:23 10° N 05:48:18 51° WNW 05:53:12 10° SW visible
25 Nov 4.8 16:59:27 10° SSW 17:04:03 35° W 17:08:42 10° NNW visible
26 Nov 3.2 05:06:27 10° NNE 05:11:33 75° ESE 05:16:37 10° S visible
26 Nov 3.3 16:22:03 10° S 16:27:08 76° WSW 16:32:14 10° NNW visible
27 Nov 4.7 04:30:01 10° NNE 04:34:38 34° E 04:39:13 10° SSE visible
27 Nov 5.7 17:25:57 10° SW 17:29:42 20° W 17:33:26 10° NW visible
28 Nov 6.0 03:54:25 10° NE 03:57:29 16° E 04:00:31 10° SE visible
28 Nov 3.0 05:31:55 10° N 05:36:57 65° WNW 05:41:58 10° SSW visible
28 Nov 4.3 16:47:47 10° S 16:52:37 44° W 16:57:28 10° NNW visible
29 Nov 3.6 04:55:07 10° NNE 05:00:10 59° E 05:05:09 10° S visible
29 Nov 3.0 16:10:39 10° SSE 16:15:44 86° ENE 16:20:51 10° NNW visible
29 Nov 6.3 17:53:46 10° WSW 17:55:25 11° W 17:57:05 10° WNW visible
30 Nov 5.1 04:18:51 10° NE 04:23:10 27° E 04:27:26 10° SSE visible
30 Nov 5.3 17:14:01 10° SSW 17:18:12 26° W 17:22:24 10° NW visible
01 Dec 6.2 03:43:54 10° ENE 03:45:57 12° E 03:48:01 10° ESE visible
01 Dec 2.9 05:20:29 10° N 05:25:35 81° WNW 05:30:40 10° SSW visible
01 Dec 3.8 16:36:13 10° S 16:41:11 55° W 16:46:12 10° NNW visible
02 Dec 4.1 04:43:49 10° NNE 04:48:44 46° E 04:53:36 10° S visible
02 Dec 3.0 15:59:20 10° SSE 16:04:22 69° ENE 16:09:26 10° N visible
02 Dec 6.1 17:41:03 10° WSW 17:43:53 15° W 17:46:43 10° NW visible
03 Dec 5.5 04:07:47 10° NE 04:11:41 22° E 04:15:32 10° SE visible
03 Dec 3.2 05:46:03 10° N 05:50:56 47° WNW 05:55:46 10° SW visible
03 Dec 4.9 17:02:13 10° SSW 17:06:43 32° W 17:11:16 10° NNW visible
04 Dec 3.1 05:09:05 10° NNE 05:14:13 81° ESE 05:19:17 10° S visible
04 Dec 3.4 16:24:43 10° S 16:29:46 70° WSW 16:34:52 10° NNW visible
